EW5449 Weather Reports


Display with metric or nautical units.
time (UTC)temp
F
wind
direction
speed
MPH
gust
MPH
rain 1hr
in
rain 24hr
in
rain mn
in
humidity
%
barometer
mb
20260503021513 49 205 0.0 2.0 0.00 0.00 0.00 50 1014.5
20260503020013 50 351 0.0 3.0 0.00 0.00 0.00 49 1014.4
20260503014519 50 339 0.0 2.0 0.00 0.00 0.00 48 1014.2
20260503013021 51 338 0.0 3.0 0.00 0.00 0.00 48 1014.0
20260503011512 51 337 0.0 3.0 0.00 0.00 0.00 46 1013.8
20260503010011 51 340 0.0 4.0 0.00 0.00 0.00 46 1013.5
20260503004511 52 296 0.0 2.0 0.00 0.00 0.00 46 1013.3
20260503003009 52 341 0.0 4.0 0.00 0.00 0.00 45 1013.0
20260503001509 53 275 0.0 2.0 0.00 0.00 0.00 44 1012.7
20260503000014 53 337 0.0 5.0 0.00 0.00 0.00 43 1012.6
20260502234509 54 342 0.0 2.0 0.00 0.00 0.00 41 1012.3
20260502233007 54 338 0.0 3.0 0.00 0.00 0.00 40 1012.1
20260502231507 55 338 1.0 5.0 0.00 0.00 0.00 39 1012.0
20260502230008 55 346 0.0 2.0 0.00 0.00 0.00 40 1011.9
20260502224508 56 337 0.0 4.0 0.00 0.00 0.00 39 1011.9
20260502223005 56 343 0.0 6.0 0.00 0.00 0.00 40 1011.8
20260502221506 56 315 2.0 5.0 0.00 0.00 0.00 38 1011.9
20260502220005 57 336 1.0 5.0 0.00 0.00 0.00 38 1011.7
20260502214504 57 351 1.0 6.0 0.00 0.00 0.00 37 1011.7
20260502213002 58 314 1.0 8.0 0.00 0.00 0.00 36 1011.7
20260502211504 56 206 0.0 4.0 0.00 0.00 0.00 40 1011.8
20260502210003 57 331 0.0 5.0 0.00 0.00 0.00 39 1011.7
20260502204600 57 334 0.0 4.0 0.00 0.00 0.00 40 1011.7
20260502203113 56 334 1.0 4.0 0.00 0.00 0.00 41 1011.7
20260502201558 56 206 0.0 2.0 0.00 0.00 0.00 42 1011.7
20260502200058 56 344 0.0 6.0 0.00 0.00 0.00 40 1011.8
20260502194557 56 209 0.0 4.0 0.00 0.00 0.00 41 1011.9
20260502193055 57 188 1.0 6.0 0.00 0.00 0.00 40 1012.2
20260502191551 56 355 0.0 2.0 0.00 0.00 0.00 42 1012.4
20260502190052 56 216 1.0 4.0 0.00 0.00 0.00 41 1012.7
20260502184549 56 342 0.0 4.0 0.00 0.00 0.00 40 1012.9
20260502183048 56 207 0.0 4.0 0.00 0.00 0.00 39 1013.0
20260502181546 56 340 1.0 3.0 0.00 0.00 0.00 40 1013.2
20260502163043 54 270 0.0 5.0 0.00 0.00 0.00 40 1014.0
20260502161544 56 202 0.0 3.0 0.00 0.00 0.00 42 1014.1
20260502151539 53 350 1.0 5.0 0.00 0.00 0.00 48 1014.3
20260502123028 47 346 1.0 3.0 0.00 0.00 0.00 59 1014.4
20260502121536 46 240 0.0 4.0 0.00 0.00 0.00 61 1014.3
20260502114527 46 336 0.0 4.0 0.00 0.00 0.00 63 1014.5
20260502113026 45 214 0.0 4.0 0.00 0.00 0.00 64 1014.3
20260502111525 45 238 0.0 3.0 0.00 0.00 0.00 65 1014.4
20260502110023 44 203 0.0 2.0 0.00 0.00 0.00 65 1014.6
20260502104539 44 211 0.0 3.0 0.00 0.00 0.00 66 1014.5
20260502103026 44 186 0.0 2.0 0.00 0.00 0.00 66 1014.4
20260502101520 45 186 0.0 1.0 0.00 0.00 0.00 64 1014.3
20260502091517 46 273 0.0 3.0 0.00 0.00 0.00 64 1014.4
20260502070056 50 289 0.0 4.0 0.00 0.00 0.00 64 1013.1
20260502064600 50 230 0.0 2.0 0.00 0.00 0.00 63 1013.1
20260502063047 51 215 1.0 3.0 0.00 0.00 0.00 63 1012.9
20260502061544 52 320 0.0 3.0 0.00 0.00 0.00 63 1013.1
20260502060041 52 205 0.0 2.0 0.00 0.00 0.00 62 1013.4
20260502054542 53 203 0.0 2.0 0.00 0.00 0.00 61 1013.2
20260502053038 53 203 0.0 2.0 0.00 0.00 0.00 60 1013.2
20260502051557 54 219 0.0 2.0 0.00 0.00 0.00 60 1013.1
20260502050034 54 178 0.0 2.0 0.00 0.00 0.00 58 1013.2
20260502044533 54 216 0.0 3.0 0.00 0.00 0.00 58 1013.2
20260502043031 55 278 0.0 3.0 0.00 0.00 0.00 57 1013.1
20260502041530 55 229 1.0 4.0 0.00 0.00 0.00 58 1013.1
20260502040026 55 204 0.0 2.0 0.00 0.00 0.00 61 1012.8
20260502034537 55 195 0.0 2.0 0.00 0.00 0.00 61 1012.5
20260502033030 55 202 0.0 4.0 0.00 0.00 0.00 60 1012.4
20260502031525 55 206 0.0 2.0 0.00 0.00 0.00 60 1012.5
20260502030024 55 270 0.0 3.0 0.00 0.00 0.00 59 1012.2
20260502024528 56 355 0.0 4.0 0.00 0.00 0.00 58 1012.2
20260502023027 56 327 0.0 5.0 0.00 0.00 0.00 56 1012.1